NSS-12

Last updated on Tue Oct 08 2024 00:02:38 GMT+0000 (Coordinated Universal Time)

1 36032U 09058A 24281.26299167 .00000082 00000+0 00000+0 0 9993 2 36032 0.0875 79.1930 0003477 115.8247 333.0851 1.00272789 54710
UTC large
Height (km)
Speed (km/s)
/
Latitude / Longitude
Inclination (degrees)
Orbital Period (minutes)
Azimuth
Elevation
Range (km)
Doppler Factor

Next 0 passes for location: London (51.5072 / 0.1276)

Sorry there are no passes over London.